Regional Weather Roundup
Issued by NWS Cleveland, OH

Home | Current Version | Previous Version | Text Only | Print | Product List | Glossary Off
Versions: 1 2 3 4 5 6 7 8 9 10 11 12 13 14 15 16 17 18 19 20 21 22 23 24 25 26 27 28 29 30 31 32 33 34 35 36 37 38 39 40 41 42 43 44 45 46 47 48 49 50

000
ASUS41 KCLE 170700
RWRCLE
OHIO REGIONAL WEATHER ROUNDUP
NATIONAL WEATHER SERVICE WILMINGTON, OH
300 AM EDT TUE OCT 17 2017

NOTE: "FAIR" INDICATES FEW OR NO CLOUDS BELOW 12,000 FEET WITH NO
SIGNIFICANT WEATHER AND/OR OBSTRUCTIONS TO VISIBILITY.

OHZ001>008-015>018-024>027-034-035-043-044-170800-
   NORTHWEST OHIO

CITY           SKY/WX    TMP DP  RH WIND       PRES   REMARKS
DEFIANCE       FAIR      43  37  79 S3        30.27S
FINDLAY        FAIR      41  35  79 S6        30.28R
TOLEDO EXPRESS FAIR      43  41  93 SW5       30.26S
TOLEDO EXEC    FAIR      44  39  82 S6        30.27S
LIMA           FAIR      43  38  82 S8        30.29R
$$

OHZ009>014-019>023-028>033-038-089-170800-
   NORTHEAST OHIO

CITY           SKY/WX    TMP DP  RH WIND       PRES   REMARKS
CLE-HOPKINS    FAIR      40  36  86 S3        30.31R
CLE-LAKEFRONT  FAIR      45  35  68 SE12      30.28R
CUY CO. ARPT   NOT AVBL
LORAIN-ELYRIA    N/A    N/A N/A N/A MISG      30.29S
ASHTABULA      FAIR      38  34  85 CALM      30.30R
AKRON-CANTON   FAIR      41  34  76 SW5       30.30R
WOOSTER        NOT AVBL
MANSFIELD      FAIR      41  36  82 S5        30.29S
YOUNGSTOWN     FAIR      34  31  88 CALM      30.29S
$$

OHZ042-051>053-060>062-070>072-077>081-170800-
  SOUTHWEST OHIO

CITY           SKY/WX    TMP DP  RH WIND       PRES   REMARKS
CINC-COVINGTON FAIR      41  41 100 CALM      30.31S
CINC-LUNKEN    MOCLDY    40  40 100 CALM      30.34R
HAMILTON       FAIR      37  36  96 CALM      30.33S
DAYTON         NOT AVBL
WRIGHT-PAT AFB NOT AVBL
DAYTON GENERAL FAIR      45  37  73 CALM      30.31R
WILMINGTON     FAIR      40  39  97 CALM      30.32R
$$

OHZ036-037-039>041-045>050-054>059-063>069-073>076-082>088-170800-
  CENTRAL AND SOUTHEAST OHIO

CITY           SKY/WX    TMP DP  RH WIND       PRES   REMARKS
COLUMBUS       FAIR      42  41  96 CALM      30.31R
OSU AIRPORT    FAIR      42  41  96 CALM      30.31R
BOLTON FIELD   NOT AVBL
RICKENBACK AFB NOT AVBL
NEWARK         FAIR      38  36  92 CALM      30.31S
MARION         FAIR      39  36  89 S6        30.30R
LANCASTER      FAIR      37  36  96 CALM      30.32R
ZANESVILLE     FAIR      38  36  92 CALM      30.32R
NEW PHILLY     FAIR      37  36  96 CALM      30.32S
$$




USA.gov is the U.S. government's official web portal to all federal, state and local government web resources and services.